This demonstration page uses our WeatherBlox Daily Observations layout. Learn more.

Left ArrowRight Arrow

34.74481, -87.66753

Hourly Observations for August 9, 2015

Temp ( °F °C ) Dew Point ( °F °C ) Humidity (%) Winds ( mph kmh ) Pressure ( in mb ) Visibility ( mi km ) Precip ( " mm )
12:53 am 00:53 Clear 72 22.2 68 20 87 87 Calm 29.94 1014 9 14 0.00 0.00
1:53 am 01:53 Clear 71 21.7 68 20 90 90 Calm 29.93 1014 7 11 0.00 0.00
2:53 am 02:53 Clear 71 21.7 68 20 90 90 Calm 29.93 1014 9 14 0.00 0.00
3:53 am 03:53 Clear 72 22.2 69 20.6 91 91 Calm 29.93 1013 9 14 0.00 0.00
4:53 am 04:53 Clear 71 21.7 68 20 90 90 Calm 29.93 1014 10 16 0.00 0.00
5:53 am 05:53 Clear with Mist and Fog 70 21.1 68 20 93 93 Calm 29.94 1014 4 6 0.00 0.00
6:53 am 06:53 Sunny with Mist and Fog 71 21.7 69 20.6 94 94 Calm 29.96 1015 4 6 0.00 0.00
7:53 am 07:53 Sunny 75 23.9 70 21.1 84 84 Calm 29.97 1015 10 16 0.00 0.00
8:53 am 08:53 Sunny 79 26.1 71 21.7 77 77 ESE 3 6 29.98 1015 10 16 0.00 0.00
9:53 am 09:53 Sunny 84 28.9 73 22.8 70 70 Calm 29.99 1016 10 16 0.00 0.00
10:53 am 10:53 Sunny 88 31.1 73 22.8 61 61 Calm 30.00 1016 10 16 0.00 0.00
11:53 am 11:53 Sunny 89 31.7 69 20.6 52 52 Calm 29.99 1016 10 16 0.00 0.00
12:53 pm 12:53 Sunny 91 32.8 69 20.6 49 49 ENE 3 6 29.97 1015 10 16 0.00 0.00
1:53 pm 13:53 Sunny 93 33.9 70 21.1 47 47 NE 3 6 29.95 1014 10 16 0.00 0.00
2:53 pm 14:53 Sunny 94 34.4 71 21.7 48 48 NNW 3 6 29.94 1014 10 16 0.00 0.00
3:53 pm 15:53 Sunny 95 35 67 19.4 40 40 ENE 3 6 29.93 1014 10 16 0.00 0.00
4:53 pm 16:53 Sunny 93 33.9 70 21.1 47 47 N 3 6 29.93 1014 10 16 0.00 0.00
5:53 pm 17:53 Sunny 93 33.9 68 20 44 44 N 3 6 29.93 1013 10 16 0.00 0.00
6:53 pm 18:53 Sunny 88 31.1 73 22.8 61 61 Calm 29.92 1013 10 16 0.00 0.00
7:53 pm 19:53 Clear 81 27.2 69 20.6 67 67 Calm 29.92 1013 10 16 0.00 0.00
8:53 pm 20:53 Clear 79 26.1 70 21.1 74 74 Calm 29.93 1013 10 16 0.00 0.00
9:53 pm 21:53 Clear 77 25 70 21.1 79 79 Calm 29.94 1014 10 16 0.00 0.00
10:53 pm 22:53 Hazy 76 24.4 71 21.7 85 85 Calm 29.94 1014 5 8 0.00 0.00
11:53 pm 23:53 Clear 75 23.9 71 21.7 88 88 Calm 29.94 1014 8 13 0.00 0.00

Powered by AerisWeather